Terminal Aerodrome Forecast
Issued by NWS

Home | Current Version | Previous Version | Text Only | Print | Product List | Glossary On
Versions: 1 2 3 4 5 6 7 8 9 10 11 12 13 14 15 16 17 18 19 20 21 22 23 24 25 26 27 28 29 30 31 32 33
532
FTUS43 KDLH 071727
TAFHIB
TAF
KHIB 071727Z 0718/0818 27005KT 4SM -SN OVC012
     FM071900 28011KT 3SM -SN OVC015
     FM072200 30013G21KT 3SM -SN BLSN OVC015
     FM080200 32017G28KT 4SM -SN BLSN OVC015
     FM080900 34015G25KT 6SM -SN BLSN OVC020
     FM081600 34015G25KT P6SM -SN SCT025 OVC035=

USA.gov is the U.S. government's official web portal to all federal, state and local government web resources and services.